[[{"header":{"parameterUnit":"m.s-1","parameterCategory":1,"la1":30.2991,"la2":30.254,"lo1":-89.0895,"lo2":-89.0444,"dy":0.0017,"dx":0.0017,"nx":28,"ny":28,"refTime":"2023-08-21T03:00:00:Z","depth":0,"parameterNumber":2,"parameterNumberName":"U-component_of_WINDS"},"data":[0,0,0,0,0,0,0,0,0,0,0,0,0,0,0,0,0,0,0,0,0,0,0,0,0,0,0,0,0,0,0,0,0,0,0,0,0,0,0,0,0,0,0,0,0,0,0,0,0,0,0,0,0,0,0,0,0,0,-4.9105,-4.9105,0,-4.9079,-4.9079,-4.9078,-4.8966,-4.8963,-4.896,-4.8958,-4.8933,-4.8934,-4.8936,0,0,0,0,0,0,0,0,0,0,0,0,0,-4.906,-4.9061,-4.9105,-4.9105,-4.9104,-4.9079,-4.9079,-4.9078,-4.8966,-4.8963,-4.896,-4.8957,-4.8932,-4.8934,-4.8936,0,0,0,0,0,0,0,0,0,0,0,0,0,-4.9061,-4.9061,-4.9105,-4.9045,-4.904,-4.9079,-4.9079,-4.9078,-4.8967,-4.8963,-4.8959,-4.8955,-4.8931,-4.8934,-4.8937,-4.9032,0,0,-4.8945,-4.8946,0,0,0,0,0,0,0,0,-4.9061,-4.9063,-4.9054,-4.9049,-4.9043,-4.9021,-4.9053,-4.9063,-4.8968,-4.8994,-4.8958,-4.8953,-4.8966,-4.8965,-4.8969,-4.9031,-4.903,-4.8945,-4.8947,-4.8948,-4.8949,0,0,0,0,0,0,0,-4.9061,-4.9063,-4.9095,-4.9054,-4.9048,-4.902,-4.9016,-4.9055,-4.9003,-4.8992,-4.8984,-4.8982,-4.8962,-4.8967,-4.8968,-4.903,-4.8945,-4.8947,-4.8949,-4.895,-4.9169,-4.9173,0,0,0,0,0,0,-4.9069,-4.9064,-4.9096,-4.9094,-4.9043,-4.9025,-4.902,-4.9032,-4.9002,-4.8993,-4.8985,-4.8977,-4.8964,-4.8965,-4.8966,-4.9075,-4.8948,-4.895,-4.8952,-4.9165,-4.917,-4.9174,0,0,0,0,0,0,-4.9069,-4.9073,-4.9097,-4.9077,-4.9078,-4.9029,-4.9045,-4.9034,-4.9039,-4.8997,-4.8987,-4.9,-4.8961,-4.8962,-4.9016,-4.9073,-4.8952,-4.8954,-4.916,-4.9166,-4.9172,-4.9294,0,0,0,0,0,0,-4.9068,-4.9074,-4.9109,-4.9078,-4.9079,-4.9147,-4.9048,-4.9036,-4.9043,-4.9032,-4.9008,-4.9,-4.8958,-4.9013,-4.9019,-4.9074,-4.8956,-4.9154,-4.9163,-4.917,-4.9285,-4.9304,-4.932,0,0,0,0,0,-4.9067,-4.9145,-4.9111,-4.9115,-4.9122,-4.915,-4.9151,-4.91,-4.9049,-4.9083,-4.9057,-4.9001,-4.9066,-4.902,-4.9025,-4.9082,-4.9151,-4.916,-4.9169,-4.9277,-4.93,-4.932,0,0,0,0,0,0,-4.9183,-4.9139,-4.9102,-4.9172,-4.9166,-4.9131,-4.9173,-4.9127,-4.9135,-4.9124,-4.9062,-4.9057,-4.912,-4.9107,-4.9056,-4.9173,-4.9099,-4.911,-4.9179,-4.9201,-4.9218,-4.9219,-4.8958,0,0,0,0,0,-4.9217,-4.9243,-4.9204,-4.9269,-4.9268,-4.9222,-4.9233,-4.9195,-4.9186,-4.9182,-4.9159,-4.9154,-4.9172,-4.9186,-4.9202,-4.9284,-4.9277,-4.9326,-4.9344,-4.9358,-4.9368,-4.941,-4.9431,-4.9205,-4.9205,-4.9205,0,0,-4.9286,-4.9266,-4.9286,-4.9292,-4.9283,-4.9311,-4.922,-4.9255,-4.9275,-4.9188,-4.9236,-4.922,-4.921,-4.9278,-4.9307,-4.9269,-4.9429,-4.937,-4.9382,-4.9384,-4.9422,-4.9443,-4.9462,-4.9212,-4.9211,-4.921,0,0,-4.9427,-4.9415,-4.9468,-4.9461,-4.9448,-4.9417,-4.9431,-4.9404,-4.9389,-4.9438,-4.9372,-4.9397,-4.9431,-4.9426,-4.9428,-4.9571,-4.9519,-4.9578,-4.9669,-4.971,-4.9728,-4.9744,-4.9793,-4.9812,-4.9588,-4.9588,-4.9588,0,-4.9515,-4.9555,-4.9502,-4.954,-4.9545,-4.9467,-4.9521,-4.9517,-4.951,-4.9515,-4.9473,-4.9515,-4.9502,-4.9568,-4.9603,-4.9608,-4.9621,-4.9578,-4.973,-4.9745,-4.9758,-4.9805,-4.9824,-4.9595,-4.9594,-4.9594,-4.9593,0,-4.9664,-4.9693,-4.9738,-4.9733,-4.9743,-4.9789,-4.9743,-4.976,-4.9722,-4.9696,-4.9747,-4.973,-4.974,-4.9754,-4.9717,-4.9815,-4.9791,-4.9741,-4.9664,-4.9788,-4.983,-4.9848,-4.9605,-4.9603,-4.9601,-4.9599,0,0,-4.9874,-4.984,-4.9857,-4.9854,-4.9835,-4.9857,-4.9901,-4.991,-4.9926,-4.9925,-4.9959,-4.9991,-4.9945,-4.9947,-4.991,-4.9947,-5.006,-4.9892,-4.989,-4.9922,-5.0165,-5.0201,-5.0223,-5.0027,-5.003,-5.0033,-5.0165,0,-5.0007,-5.0077,-5.0031,-5.0109,-5.0136,-5.0064,-5.0102,-5.0095,-5.0073,-5.0093,-5.0068,-5.0091,-5.0029,-5.003,-5.0064,-5.0039,-5.0107,-5.0029,-5.0057,-5.0059,-5.0059,-5.0245,-5.0283,-5.0409,-5.0182,-5.0185,-5.0187,0,-5.0171,-5.0176,-5.0257,-5.0234,-5.0243,-5.0278,-5.0283,-5.0303,-5.0295,-5.0276,-5.028,-5.0234,-5.0276,-5.0203,-5.026,-5.0207,-5.0217,-5.0207,-5.0211,-5.0209,-5.0128,-5.0247,-5.0448,-5.0467,-5.0212,-5.021,-5.0209,0,-5.0314,-5.0342,-5.0394,-5.0394,-5.0368,-5.0394,-5.0385,-5.0372,-5.0382,-5.0388,-5.0393,-5.0404,-5.041,-5.042,-5.0379,-5.033,-5.044,-5.0364,-5.0425,-5.0427,-5.0449,-5.0448,-5.0653,-5.046,-5.046,-5.046,-5.0459,0,-5.0465,-5.0517,-5.0457,-5.0489,-5.0545,-5.0493,-5.0551,-5.0534,-5.0524,-5.0552,-5.0492,-5.0519,-5.0464,-5.0486,-5.0455,-5.0505,-5.0509,-5.0495,-5.0485,-5.0499,-5.05,-5.0502,-5.0491,-5.0464,-5.0463,-5.0462,-5.0462,0,-5.0633,-5.0595,-5.0647,-5.0619,-5.0613,-5.0656,-5.0632,-5.0661,-5.0636,-5.0672,-5.0677,-5.0638,-5.0661,-5.0621,-5.064,-5.0618,-5.0689,-5.0667,-5.0692,-5.0684,-5.0747,-5.0741,-5.0958,-5.0984,-5.0777,-5.0779,-5.078,0,-5.0731,-5.0769,-5.0746,-5.076,-5.0754,-5.0777,-5.0786,-5.0738,-5.075,-5.0744,-5.0774,-5.0792,-5.0803,-5.0844,-5.0817,-5.0831,-5.0808,-5.0883,-5.0809,-5.0821,-5.0806,-5.0804,-5.0807,-5.0897,-5.09,-5.0902,-5.0903,0,-5.0908,-5.0888,-5.0903,-5.0913,-5.0926,-5.0931,-5.0932,-5.0947,-5.0896,-5.0913,-5.0935,-5.0945,-5.0964,-5.0982,-5.099,-5.0981,-5.0934,-5.0928,-5.0942,-5.0955,-5.0966,-5.0959,-5.073,-5.0922,-5.092,-5.0919,-5.0918,-5.0917,-5.1042,-5.1073,-5.1061,-5.1081,-5.1076,-5.1079,-5.1104,-5.1083,-5.1101,-5.1112,-5.1083,-5.1113,-5.1104,-5.111,-5.1106,-5.1129,-5.1096,-5.1117,-5.1122,-5.1128,-5.1137,-5.0965,-5.1131,-5.113,-5.113,-5.1129,-5.1129,0,-5.1215,-5.1204,-5.1223,-5.1226,-5.1242,-5.1197,-5.1197,-5.1213,-5.1239,-5.1236,-5.1248,-5.1275,-5.1293,-5.1269,-5.1283,-5.1306,-5.1285,-5.1311,-5.1308,-5.1307,-5.1167,-5.1152,-5.1328,-5.1328,-5.1328,-5.1328,-5.1328,-5.1328,-5.1306,-5.1355,-5.1334,-5.1381,-5.137,-5.1399,-5.1402,-5.1404,-5.1401,-5.1433,-5.1448,-5.1432,-5.1421,-5.1434,-5.1449,-5.1441,-5.1448,-5.1482,-5.1467,-5.1336,-5.1316,-5.1298,-5.1283,-5.1485,-5.1485,-5.1604,-5.1606,-5.1606]},{"header":{"parameterUnit":"m.s-1","parameterCategory":1,"la1":30.2991,"la2":30.254,"lo1":-89.0895,"lo2":-89.0444,"dy":0.0017,"dx":0.0017,"nx":28,"ny":28,"refTime":"2023-08-21T03:00:00:Z","depth":0,"parameterNumber":3,"parameterNumberName":"V-component_of_WINDS"},"data":[0,0,0,0,0,0,0,0,0,0,0,0,0,0,0,0,0,0,0,0,0,0,0,0,0,0,0,0,0,0,0,0,0,0,0,0,0,0,0,0,0,0,0,0,0,0,0,0,0,0,0,0,0,0,0,0,0,0,2.6039,2.6039,0,2.6069,2.607,2.607,2.6091,2.6091,2.6091,2.6091,2.6119,2.612,2.6121,0,0,0,0,0,0,0,0,0,0,0,0,0,2.5997,2.5998,2.6039,2.6039,2.604,2.6069,2.607,2.607,2.6091,2.6091,2.6091,2.6091,2.6119,2.612,2.6121,0,0,0,0,0,0,0,0,0,0,0,0,0,2.602,2.5998,2.6039,2.6054,2.6055,2.6069,2.607,2.607,2.6091,2.6091,2.6091,2.6091,2.6119,2.612,2.6121,2.6121,0,0,2.6123,2.6124,0,0,0,0,0,0,0,0,2.6019,2.6021,2.6051,2.6053,2.6055,2.6077,2.6065,2.6087,2.6091,2.6077,2.6091,2.6092,2.6105,2.6107,2.6112,2.6123,2.6124,2.6124,2.6124,2.6124,2.6125,0,0,0,0,0,0,0,2.6017,2.602,2.6051,2.6052,2.6054,2.6058,2.6062,2.607,2.6089,2.6078,2.608,2.6083,2.6106,2.6111,2.6113,2.6124,2.6124,2.6124,2.6125,2.6125,2.6139,2.6139,0,0,0,0,0,0,2.6013,2.6019,2.605,2.6052,2.6037,2.6059,2.6063,2.6069,2.6089,2.6092,2.6083,2.6084,2.6109,2.6112,2.6114,2.6117,2.6124,2.6125,2.6126,2.6139,2.6139,2.6139,0,0,0,0,0,0,2.6012,2.6016,2.6049,2.6036,2.604,2.6059,2.6066,2.607,2.6075,2.6093,2.6096,2.6085,2.611,2.6113,2.612,2.6118,2.6126,2.6127,2.6139,2.6139,2.6139,2.6122,0,0,0,0,0,0,2.6011,2.6016,2.6016,2.6036,2.6041,2.6055,2.6066,2.607,2.6077,2.6079,2.6096,2.6099,2.611,2.6119,2.6121,2.6119,2.6127,2.6139,2.6139,2.6139,2.6123,2.6122,2.612,0,0,0,0,0,2.601,2.6009,2.6016,2.602,2.6043,2.6055,2.6058,2.6072,2.6077,2.6078,2.6089,2.6098,2.6118,2.6119,2.6122,2.6121,2.614,2.6139,2.6139,2.6124,2.6122,2.612,0,0,0,0,0,0,2.5988,2.6012,2.602,2.6026,2.6039,2.6058,2.6059,2.6069,2.6079,2.608,2.6096,2.61,2.6106,2.6114,2.6115,2.6123,2.613,2.613,2.6118,2.6116,2.6114,2.6112,2.6128,0,0,0,0,0,2.5984,2.5993,2.6013,2.6017,2.6023,2.604,2.6046,2.6056,2.6069,2.6074,2.6086,2.6097,2.6106,2.6111,2.6121,2.6125,2.6129,2.6125,2.6124,2.6123,2.6122,2.6126,2.6125,2.6137,2.6137,2.6137,0,0,2.5975,2.599,2.5994,2.6013,2.6023,2.6032,2.6044,2.6052,2.6058,2.6074,2.6083,2.6092,2.6106,2.6112,2.6115,2.6119,2.612,2.6122,2.6121,2.6121,2.6125,2.6124,2.6123,2.6137,2.6137,2.6137,0,0,2.5965,2.5976,2.5981,2.5992,2.6009,2.6021,2.6022,2.6041,2.6048,2.6057,2.607,2.6077,2.6092,2.6102,2.6108,2.6103,2.6112,2.6106,2.6098,2.6101,2.61,2.6099,2.6098,2.6097,2.6106,2.6105,2.6105,0,2.5952,2.5965,2.5982,2.599,2.5998,2.6015,2.602,2.6029,2.6048,2.6052,2.6057,2.6077,2.6087,2.6096,2.6095,2.61,2.6102,2.6103,2.6099,2.6099,2.6098,2.6097,2.6096,2.6105,2.6105,2.6105,2.6105,0,2.5949,2.5958,2.596,2.5979,2.5988,2.5994,2.6011,2.6018,2.6027,2.6039,2.6048,2.6061,2.6074,2.6077,2.6086,2.6087,2.6089,2.6096,2.6103,2.6096,2.6095,2.6094,2.6103,2.6104,2.6104,2.6104,0,0,2.5923,2.5954,2.5954,2.5963,2.5984,2.5991,2.5998,2.6012,2.6018,2.603,2.6036,2.6049,2.6056,2.6064,2.6074,2.6077,2.6073,2.6084,2.6085,2.6082,2.6076,2.6071,2.607,2.6079,2.6079,2.6079,2.6075,0,2.5916,2.5931,2.5947,2.5956,2.5966,2.5983,2.5989,2.6002,2.6013,2.6022,2.6034,2.6044,2.6052,2.6057,2.6061,2.6073,2.6072,2.6073,2.6085,2.6085,2.6081,2.607,2.6064,2.606,2.6075,2.6075,2.6075,0,2.5908,2.5922,2.5932,2.5954,2.5958,2.5964,2.5979,2.5987,2.6002,2.601,2.602,2.6031,2.604,2.6046,2.6058,2.6058,2.6064,2.6071,2.6071,2.6073,2.6079,2.6071,2.6058,2.6058,2.6075,2.6075,2.6075,0,2.5889,2.591,2.5919,2.5927,2.5952,2.5955,2.5966,2.5981,2.5989,2.6002,2.6007,2.602,2.6027,2.6036,2.6051,2.6054,2.6061,2.6069,2.6068,2.6067,2.6068,2.6067,2.6056,2.6072,2.6072,2.6072,2.6072,0,2.5879,2.5885,2.5912,2.5917,2.5924,2.5943,2.5949,2.5961,2.5975,2.5983,2.5998,2.6005,2.6025,2.6034,2.6045,2.6053,2.6056,2.6062,2.6065,2.6061,2.606,2.6065,2.6065,2.6072,2.6072,2.6072,2.6072,0,2.5858,2.5876,2.5888,2.5911,2.5918,2.5922,2.5941,2.5947,2.596,2.597,2.5974,2.5993,2.6005,2.6021,2.6037,2.6045,2.6051,2.6056,2.6047,2.6048,2.6046,2.6046,2.6037,2.6037,2.6053,2.6053,2.6052,0,2.585,2.5856,2.588,2.5888,2.5898,2.5909,2.5918,2.5937,2.5945,2.5964,2.5967,2.5981,2.5992,2.601,2.6025,2.6038,2.6043,2.6039,2.6045,2.6041,2.6043,2.6043,2.6043,2.6037,2.6037,2.6037,2.6037,0,2.5834,2.5844,2.5856,2.5873,2.5883,2.5896,2.591,2.5915,2.5936,2.5945,2.5958,2.5967,2.5985,2.5998,2.6013,2.6022,2.6033,2.6035,2.6035,2.6031,2.6025,2.6029,2.6043,2.6035,2.6035,2.6035,2.6035,2.6035,2.582,2.5826,2.5845,2.5859,2.5872,2.5885,2.5892,2.5907,2.5919,2.5935,2.5946,2.5958,2.5974,2.5996,2.6005,2.6015,2.6019,2.602,2.602,2.602,2.6019,2.6024,2.6018,2.6018,2.6018,2.6018,2.6018,0,2.5805,2.5819,2.5831,2.5851,2.5862,2.5874,2.589,2.5898,2.5909,2.5924,2.5936,2.5951,2.5965,2.5981,2.5996,2.6,2.6005,2.6003,2.6003,2.6005,2.6014,2.6012,2.5999,2.5999,2.5999,2.5999,2.5999,2.5999,2.5799,2.581,2.5822,2.5839,2.5853,2.5867,2.5875,2.5887,2.5899,2.5917,2.5928,2.594,2.5955,2.5971,2.5984,2.5988,2.5993,2.5989,2.5995,2.6003,2.6004,2.6006,2.6005,2.599,2.599,2.5985,2.5985,2.5985]}]]